TimeMDT,TemperatureF,Dew PointF,Humidity,Sea Level PressureIn,VisibilityMPH,Wind Direction,Wind SpeedMPH,Gust SpeedMPH,PrecipitationIn,Events,Conditions,WindDirDegrees,DateUTC
12:15 AM,53.6,37.4,54,30.66,10.0,South,10.4,-,N/A,,Clear,190,2013-08-03 06:15:00
12:35 AM,53.6,37.4,54,30.67,10.0,SW,3.5,-,N/A,,Clear,220,2013-08-03 06:35:00
12:55 AM,53.6,35.6,51,30.67,10.0,South,10.4,-,N/A,,Clear,190,2013-08-03 06:55:00
1:15 AM,53.6,37.4,54,30.67,10.0,South,11.5,-,N/A,,Clear,190,2013-08-03 07:15:00
1:35 AM,53.6,37.4,54,30.66,10.0,SSW,3.5,-,N/A,,Clear,210,2013-08-03 07:35:00
1:55 AM,53.6,37.4,54,30.64,10.0,SW,3.5,-,N/A,,Clear,220,2013-08-03 07:55:00
2:15 AM,53.6,35.6,51,30.64,10.0,South,13.8,-,N/A,,Clear,190,2013-08-03 08:15:00
2:35 AM,53.6,35.6,51,30.64,10.0,South,13.8,-,N/A,,Clear,180,2013-08-03 08:35:00
2:55 AM,53.6,37.4,54,30.64,10.0,South,13.8,-,N/A,,Clear,180,2013-08-03 08:55:00
3:15 AM,53.6,35.6,51,30.64,10.0,South,11.5,-,N/A,,Clear,180,2013-08-03 09:15:00
3:35 AM,53.6,35.6,51,30.64,10.0,South,10.4,-,N/A,,Clear,180,2013-08-03 09:35:00
3:55 AM,53.6,35.6,51,30.64,10.0,SSW,3.5,-,N/A,,Clear,200,2013-08-03 09:55:00
4:15 AM,53.6,35.6,51,30.64,10.0,Calm,Calm,-,N/A,,Clear,0,2013-08-03 10:15:00
4:35 AM,53.6,37.4,54,30.65,10.0,WSW,5.8,-,N/A,,Clear,250,2013-08-03 10:35:00
4:55 AM,53.6,37.4,54,30.65,10.0,West,12.7,-,N/A,,Clear,270,2013-08-03 10:55:00
5:15 AM,53.6,39.2,58,30.65,10.0,West,10.4,-,N/A,,Clear,270,2013-08-03 11:15:00
5:35 AM,53.6,37.4,54,30.66,10.0,West,9.2,-,N/A,,Clear,260,2013-08-03 11:35:00
5:55 AM,53.6,39.2,58,30.67,10.0,West,5.8,-,N/A,,Clear,260,2013-08-03 11:55:00
6:15 AM,53.6,39.2,58,30.67,10.0,West,10.4,-,N/A,,Clear,260,2013-08-03 12:15:00
6:24 AM,53.6,39.2,58,30.67,10.0,West,9.2,-,N/A,,Clear,260,2013-08-03 12:24:00
7:55 AM,53.6,39.2,58,30.69,10.0,West,10.4,-,N/A,,Clear,260,2013-08-03 13:55:00
8:15 AM,53.6,39.2,58,30.69,10.0,West,9.2,-,N/A,,Clear,270,2013-08-03 14:15:00
8:35 AM,55.4,37.4,51,30.69,10.0,West,6.9,16.1,N/A,,Clear,260,2013-08-03 14:35:00
8:55 AM,55.4,41.0,58,30.69,10.0,West,11.5,16.1,N/A,,Clear,280,2013-08-03 14:55:00
9:15 AM,59.0,37.4,45,30.69,10.0,West,5.8,-,N/A,,Clear,260,2013-08-03 15:15:00
9:35 AM,59.0,41.0,51,30.69,10.0,SSE,6.9,-,N/A,,Scattered Clouds,160,2013-08-03 15:35:00
9:55 AM,62.6,41.0,45,30.69,10.0,WNW,5.8,-,N/A,,Mostly Cloudy,290,2013-08-03 15:55:00
10:15 AM,60.8,41.0,48,30.69,10.0,West,6.9,-,N/A,,Scattered Clouds,280,2013-08-03 16:15:00
10:35 AM,60.8,37.4,42,30.69,10.0,West,6.9,-,N/A,,Clear,280,2013-08-03 16:35:00
10:55 AM,60.8,37.4,42,30.70,10.0,West,6.9,-,N/A,,Clear,260,2013-08-03 16:55:00
11:15 AM,59.0,35.6,42,30.69,10.0,West,11.5,17.3,N/A,,Scattered Clouds,270,2013-08-03 17:15:00
11:35 AM,62.6,35.6,37,30.69,10.0,West,11.5,17.3,N/A,,Scattered Clouds,280,2013-08-03 17:35:00
11:55 AM,59.0,32.0,36,30.69,10.0,West,8.1,-,N/A,,Scattered Clouds,260,2013-08-03 17:55:00
12:15 PM,62.6,32.0,32,30.69,10.0,WSW,5.8,-,N/A,,Mostly Cloudy,240,2013-08-03 18:15:00
12:35 PM,64.4,32.0,30,30.69,10.0,West,17.3,23.0,N/A,,Mostly Cloudy,280,2013-08-03 18:35:00
12:55 PM,60.8,32.0,34,30.68,10.0,West,21.9,-,N/A,,Overcast,270,2013-08-03 18:55:00
1:15 PM,60.8,33.8,36,30.69,10.0,West,18.4,-,N/A,,Overcast,260,2013-08-03 19:15:00
1:35 PM,64.4,35.6,34,30.68,10.0,West,23.0,28.8,N/A,,Mostly Cloudy,280,2013-08-03 19:35:00
1:55 PM,64.4,32.0,30,30.67,10.0,West,23.0,33.4,N/A,,Scattered Clouds,270,2013-08-03 19:55:00
2:15 PM,64.4,32.0,30,30.67,10.0,West,20.7,26.5,N/A,Thunderstorm,Clear,280,2013-08-03 20:15:00
2:35 PM,60.8,30.2,31,30.67,10.0,West,11.5,-,N/A,Thunderstorm,Clear,280,2013-08-03 20:35:00
2:55 PM,60.8,32.0,34,30.67,10.0,West,17.3,-,N/A,Thunderstorm,Clear,260,2013-08-03 20:55:00
3:15 PM,60.8,30.2,31,30.68,10.0,West,16.1,-,N/A,Thunderstorm,Mostly Cloudy,270,2013-08-03 21:15:00
3:35 PM,59.0,32.0,36,30.68,10.0,WSW,10.4,20.7,N/A,,Overcast,250,2013-08-03 21:35:00
3:55 PM,59.0,35.6,42,30.69,10.0,South,8.1,21.9,N/A,Rain,Light Rain,180,2013-08-03 21:55:00
4:15 PM,53.6,39.2,58,30.68,10.0,South,24.2,28.8,N/A,Rain-Thunderstorm,Light Thunderstorms and Rain,170,2013-08-03 22:15:00
4:35 PM,55.4,37.4,51,30.68,10.0,South,24.2,-,N/A,,Mostly Cloudy,170,2013-08-03 22:35:00
4:55 PM,55.4,39.2,54,30.68,10.0,South,15.0,-,N/A,,Overcast,180,2013-08-03 22:55:00
5:15 PM,55.4,37.4,51,30.69,10.0,West,16.1,24.2,N/A,,Mostly Cloudy,270,2013-08-03 23:15:00
5:35 PM,55.4,37.4,51,30.69,10.0,WNW,19.6,-,N/A,Thunderstorm,Mostly Cloudy,290,2013-08-03 23:35:00
5:55 PM,53.6,41.0,62,30.69,10.0,West,18.4,-,N/A,,Overcast,270,2013-08-03 23:55:00
6:15 PM,53.6,41.0,62,30.69,10.0,West,18.4,-,N/A,,Mostly Cloudy,270,2013-08-04 00:15:00
6:35 PM,53.6,41.0,62,30.69,10.0,West,24.2,-,N/A,,Mostly Cloudy,280,2013-08-04 00:35:00
6:55 PM,51.8,39.2,62,30.68,10.0,West,19.6,-,N/A,,Scattered Clouds,270,2013-08-04 00:55:00
7:15 PM,53.6,41.0,62,30.67,10.0,West,9.2,-,N/A,,Scattered Clouds,270,2013-08-04 01:15:00
7:35 PM,53.6,39.2,58,30.67,10.0,West,12.7,-,N/A,,Clear,270,2013-08-04 01:35:00
7:55 PM,53.6,37.4,54,30.68,10.0,SSW,6.9,-,N/A,,Clear,200,2013-08-04 01:55:00
8:15 PM,53.6,41.0,62,30.69,10.0,SW,3.5,-,N/A,,Clear,230,2013-08-04 02:15:00
8:35 PM,53.6,35.6,51,30.70,10.0,SSW,5.8,-,N/A,,Scattered Clouds,200,2013-08-04 02:35:00
8:55 PM,53.6,35.6,51,30.71,10.0,West,6.9,-,N/A,,Mostly Cloudy,260,2013-08-04 02:55:00
9:15 PM,53.6,35.6,51,30.72,10.0,West,5.8,-,N/A,,Overcast,270,2013-08-04 03:15:00
9:35 PM,53.6,35.6,51,30.72,10.0,West,10.4,-,N/A,,Mostly Cloudy,270,2013-08-04 03:35:00
9:55 PM,53.6,37.4,54,30.72,10.0,West,10.4,-,N/A,,Overcast,260,2013-08-04 03:55:00
10:15 PM,53.6,37.4,54,30.72,10.0,West,10.4,-,N/A,,Mostly Cloudy,270,2013-08-04 04:15:00
10:35 PM,53.6,37.4,54,30.72,10.0,West,12.7,-,N/A,,Clear,280,2013-08-04 04:35:00
10:55 PM,51.8,37.4,58,30.73,10.0,West,15.0,-,N/A,,Scattered Clouds,280,2013-08-04 04:55:00
11:15 PM,51.8,37.4,58,30.72,10.0,South,8.1,-,N/A,,Scattered Clouds,180,2013-08-04 05:15:00
11:35 PM,51.8,37.4,58,30.72,10.0,South,9.2,-,N/A,,Scattered Clouds,170,2013-08-04 05:35:00
11:55 PM,53.6,39.2,58,30.72,10.0,South,6.9,-,N/A,,Clear,170,2013-08-04 05:55:00